Theta_e
316 316 317 317 318 321 322 323 320 319 319 313 313 315 315 317 317 318 319 320 323 324 320 323 330 328 327 325 326 324 324 329 327 323 325 333 334 336 337 336 339 339 339 340 339 338 336 335 332 332 335 335 332 331 330 326 325 325 326 329 332 333 334 335 335 336 337 337 336 332 330 332 332 333 333 332 331 331 331 332 332 332 332 331 331 330 329 329 330 330 330 330 329 329 330 329 329
317 320 321 320 319 321 322 322 319 316 315 311 314 316 315 317 317 320 321 321 322 319 318 325 329 325 323 322 323 323 328 329 326 329 332 334 334 336 336 338 340 339 340 340 339 338 337 334 331 332 335 335 333 331 329 326 324 326 328 330 332 333 334 335 335 336 337 337 335 333 332 333 333 333 333 332 332 332 331 331 331 330 331 332 331 330 330 330 330 330 329 329 329 329 330 329 329
319 322 321 321 321 321 323 322 318 313 312 311 313 316 316 317 320 320 320 319 319 318 321 327 327 323 322 322 323 323 328 327 326 333 335 334 336 336 336 338 339 339 339 340 340 339 338 333 330 332 334 335 333 331 330 328 326 329 330 331 333 333 334 335 336 336 336 336 336 334 334 333 333 334 333 332 331 331 331 331 331 330 331 331 332 331 331 330 330 330 330 330 329 329 329 329 329
320 323 322 323 323 322 324 321 319 314 311 310 312 316 317 319 320 318 318 320 319 319 323 327 326 323 322 324 324 323 327 329 331 336 335 336 337 336 337 339 338 338 339 340 340 339 338 332 329 331 334 335 333 331 330 328 326 328 328 328 331 333 335 335 335 335 335 336 335 335 333 332 333 333 332 331 331 331 330 330 330 330 332 332 332 333 331 330 330 329 329 329 329 329 329 329 329
320 320 321 324 324 322 323 319 319 315 311 312 312 315 317 318 319 317 319 320 318 318 321 326 327 323 323 325 324 323 328 331 334 336 336 336 337 336 337 338 338 338 339 340 340 339 337 332 329 330 335 335 333 332 330 327 325 325 325 327 329 332 334 334 336 335 334 336 335 335 333 332 333 332 332 331 331 330 330 330 330 331 333 334 333 333 330 329 330 329 328 328 328 328 329 328 328
319 318 319 321 321 319 320 316 315 314 314 315 314 315 317 317 317 319 320 319 316 315 317 322 325 324 326 326 325 326 329 332 335 335 336 336 336 336 338 338 338 338 339 340 339 339 337 333 329 329 335 336 333 332 329 327 326 325 325 326 329 331 333 333 334 334 334 335 335 335 333 332 333 333 332 331 331 330 330 330 330 330 331 332 333 334 331 330 330 329 329 329 328 328 328 328 327
320 320 321 320 318 319 320 316 314 315 314 314 314 315 315 315 318 320 320 319 316 314 313 317 322 323 325 324 326 329 329 333 335 336 336 336 336 336 338 338 338 338 339 340 339 339 337 334 330 329 335 336 333 332 329 327 326 326 325 326 330 331 331 332 334 334 333 334 335 334 332 333 333 332 331 330 330 329 329 330 331 330 330 331 331 333 333 332 330 329 330 329 328 327 327 327 327
320 320 322 323 319 320 319 316 316 316 312 311 312 313 315 315 318 321 320 319 317 315 314 317 320 321 322 321 327 331 329 332 334 335 336 336 336 337 338 337 337 337 339 339 339 339 338 335 332 328 332 335 334 332 329 327 326 326 325 325 328 329 328 332 334 332 332 333 335 333 332 332 331 330 328 329 330 329 329 329 330 330 331 331 331 332 332 332 330 329 330 329 328 328 327 327 327
317 319 321 322 319 318 316 315 316 315 313 312 311 313 314 315 317 321 320 318 316 316 317 319 319 319 322 321 326 330 330 333 333 335 335 335 336 337 338 337 337 337 338 339 339 339 337 336 334 329 329 334 335 333 330 327 326 326 326 324 325 326 326 330 332 332 332 333 334 333 331 331 331 330 328 329 329 329 329 328 328 329 330 330 331 331 331 331 330 330 329 329 329 328 327 327 327
318 319 321 322 318 316 312 314 315 314 314 313 313 314 314 314 316 320 319 317 314 316 318 316 316 316 321 322 325 329 332 333 333 336 335 335 336 337 337 337 337 336 337 338 339 339 338 337 335 331 329 332 334 334 331 328 327 325 326 325 323 323 324 326 328 329 331 333 333 332 332 331 331 331 329 328 329 329 328 328 327 329 330 330 330 330 330 330 329 329 329 329 328 328 327 327 327
320 319 321 320 316 313 311 312 315 314 314 313 314 313 313 314 316 319 317 315 313 316 317 314 315 317 320 322 324 327 330 332 335 337 335 335 335 336 337 336 337 336 336 337 338 338 338 337 336 334 332 332 334 335 333 330 329 326 325 326 323 320 320 322 323 323 326 331 331 331 331 331 330 330 329 329 329 328 327 328 328 329 330 330 330 329 329 329 329 328 328 328 328 328 327 327 327
320 321 321 319 315 313 313 313 314 316 316 315 316 313 313 313 316 318 316 316 314 316 318 316 318 319 320 321 323 325 329 334 336 336 336 335 335 336 337 336 336 336 336 336 337 337 338 337 336 335 334 334 334 335 334 332 330 327 325 326 325 321 319 320 320 319 322 328 330 330 330 330 329 329 329 329 328 327 327 328 328 329 330 330 330 329 329 329 328 327 327 327 327 328 328 328 327
320 322 321 318 316 316 315 314 315 317 317 317 317 313 312 314 317 318 316 316 315 317 317 316 318 319 319 319 321 324 330 335 335 336 336 335 335 336 336 336 336 336 336 336 337 337 338 338 336 336 335 335 334 335 334 333 332 329 326 326 326 323 320 319 319 318 318 323 326 326 327 328 328 327 328 328 328 327 326 327 327 328 330 330 329 328 328 328 327 326 327 327 327 327 328 327 327
321 322 321 318 315 316 315 314 315 314 315 316 315 311 312 314 315 315 315 315 315 316 313 313 317 318 318 318 320 323 331 336 335 337 336 336 335 335 337 337 336 336 336 336 336 337 337 337 337 337 335 335 335 335 335 334 332 330 328 326 327 325 322 319 318 318 317 318 320 320 322 325 326 325 326 327 328 327 325 326 328 329 329 329 328 328 327 327 327 326 326 327 327 327 327 327 326
319 319 320 319 315 316 315 315 316 314 313 317 313 311 313 312 311 313 315 316 315 311 310 312 315 316 317 317 319 323 334 335 335 337 336 336 335 335 337 336 336 336 337 337 337 337 337 337 337 337 336 336 336 335 335 334 333 332 329 327 327 327 324 321 320 319 318 318 318 318 318 320 321 322 325 327 328 328 324 325 328 329 329 328 327 327 326 326 326 326 326 326 327 327 327 327 326
318 320 320 319 316 316 316 315 317 314 314 316 310 310 315 311 308 312 311 312 313 310 312 314 314 317 315 316 322 325 334 335 335 337 336 337 335 335 336 336 336 336 337 337 337 337 337 337 337 338 336 336 336 336 336 335 334 333 331 329 328 328 326 323 321 320 320 319 319 318 317 317 317 319 324 328 327 328 325 324 327 328 328 328 326 326 325 325 326 326 326 326 326 326 326 326 327
316 320 320 317 315 316 316 316 316 314 315 314 308 310 317 313 308 309 308 309 313 311 312 314 315 318 317 319 321 324 333 335 335 337 336 337 336 335 335 336 336 336 337 336 337 337 337 337 337 338 337 337 336 335 336 336 335 334 333 331 328 328 327 326 323 321 321 320 320 319 318 318 318 320 324 327 327 327 326 324 325 327 327 326 326 325 325 325 325 326 325 325 325 325 326 326 326
319 321 318 315 316 317 317 317 315 315 316 313 310 312 316 315 310 309 309 311 312 312 313 312 314 318 320 321 320 323 331 334 335 336 337 337 336 336 336 336 336 336 336 336 337 337 337 337 337 338 338 337 336 336 336 336 335 334 334 333 331 329 327 327 325 322 322 321 320 320 320 320 321 322 323 325 327 327 326 325 324 325 326 325 325 324 325 325 324 324 324 324 325 325 325 326 326
319 321 317 317 319 316 314 316 314 314 315 313 311 311 314 315 312 310 312 313 312 313 314 313 314 317 321 322 321 325 330 334 336 337 337 337 337 337 337 336 336 335 336 336 336 336 337 337 337 337 337 337 336 336 336 336 336 334 334 334 333 331 328 327 327 325 325 324 321 321 322 321 321 321 319 320 324 325 326 325 324 324 324 324 324 324 324 323 323 323 323 324 324 324 325 325 326
317 318 318 319 319 315 312 313 313 311 312 313 312 310 311 312 311 311 313 314 312 313 314 313 315 315 319 324 323 327 331 334 336 337 338 337 338 338 337 337 337 336 336 335 335 336 336 337 337 336 337 337 336 336 335 335 335 335 334 334 333 332 330 329 329 328 328 326 321 321 323 321 318 317 314 316 320 324 325 324 323 323 324 324 323 324 323 321 322 323 323 323 323 324 324 325 325
316 317 317 318 317 315 312 311 311 308 309 313 312 309 311 310 309 312 313 314 313 314 315 313 315 314 319 324 325 329 332 334 335 337 337 337 338 337 337 337 337 337 336 336 335 335 335 336 337 336 336 336 336 336 335 335 335 335 334 334 334 333 332 330 330 329 329 327 323 322 322 321 319 316 313 316 319 322 324 324 323 323 324 324 324 324 322 321 322 322 322 322 322 323 324 324 325
316 314 313 314 314 315 312 308 309 307 308 311 311 311 312 310 310 312 313 314 315 314 313 314 314 313 320 324 326 329 331 333 335 336 336 337 337 337 337 337 337 337 337 336 335 335 335 336 336 336 337 336 336 336 335 335 334 335 334 334 334 333 332 331 330 329 329 328 326 323 321 321 320 317 314 315 316 318 321 323 323 323 324 324 324 323 321 321 322 322 322 321 321 322 323 323 324
316 313 309 310 311 313 310 307 308 307 309 311 311 312 311 310 312 310 311 314 314 310 310 311 310 314 323 326 327 329 330 333 334 335 336 335 336 337 337 336 337 337 336 337 336 336 335 335 336 336 337 336 336 336 335 335 335 335 334 334 333 333 332 331 330 330 328 328 328 325 322 321 321 319 316 314 314 315 317 319 320 321 323 323 322 321 321 320 321 321 321 321 320 321 322 322 323
315 314 310 309 308 310 308 306 307 306 309 310 309 310 310 312 313 308 309 314 312 308 307 309 309 315 324 326 327 330 331 332 334 335 335 335 336 336 336 336 336 336 336 336 336 336 335 335 336 335 336 336 336 335 335 335 334 334 334 333 333 332 332 331 330 329 329 328 328 326 323 322 322 320 318 316 315 315 315 315 316 318 320 321 320 320 320 320 321 321 320 320 320 320 321 322 323
314 314 310 309 308 308 306 304 305 305 307 307 307 311 311 310 310 308 310 313 311 308 308 312 315 320 324 324 327 331 332 332 333 334 334 334 335 335 335 335 335 335 335 336 335 336 336 335 336 336 335 336 336 335 335 335 335 334 334 333 332 332 331 331 330 329 329 328 327 327 324 322 323 322 320 318 316 315 314 313 314 315 316 318 318 319 319 320 320 320 320 319 319 319 320 321 322
313 311 310 309 309 308 306 306 306 306 307 306 309 312 310 307 307 310 313 311 310 308 310 316 320 321 323 325 327 330 331 332 333 333 333 332 333 333 332 333 333 335 335 335 335 335 336 335 335 336 336 336 335 335 335 336 335 334 334 333 333 332 332 331 330 330 329 328 327 327 326 324 323 323 322 320 318 316 315 313 313 313 312 313 317 319 319 319 320 319 319 319 318 318 319 320 321
310 310 310 309 309 308 308 309 307 307 308 307 311 312 309 307 308 313 313 307 306 308 311 316 319 319 322 325 326 330 331 331 333 332 332 331 332 332 332 332 332 334 334 334 334 334 335 335 335 335 336 336 335 335 335 336 336 335 334 334 333 332 332 331 330 329 329 328 327 327 326 325 323 323 323 322 320 318 317 315 313 312 311 311 314 318 319 319 319 319 318 318 318 318 318 318 320
310 310 311 309 309 309 309 310 308 309 309 307 310 311 310 308 310 314 311 305 306 309 313 315 317 318 321 324 325 328 330 331 332 332 332 332 331 332 332 332 332 333 333 334 334 334 335 334 335 335 335 336 336 335 334 335 335 335 334 334 334 332 331 331 330 330 328 328 328 327 327 325 324 324 324 323 322 321 319 317 315 313 311 309 311 316 318 319 318 318 318 318 318 318 318 318 319
310 311 313 310 311 312 310 310 309 311 311 308 310 311 312 312 312 313 308 304 307 309 312 314 316 317 319 322 323 326 328 329 331 331 332 332 332 332 332 333 333 334 334 334 334 334 335 334 334 334 334 335 335 335 334 334 334 334 334 334 335 334 332 330 330 330 329 328 328 328 328 326 325 325 325 324 323 322 321 319 317 314 312 310 309 312 317 318 318 318 318 318 318 318 318 317 318
310 310 313 312 312 312 310 309 309 311 311 307 309 310 312 314 313 311 306 304 307 309 312 313 315 316 316 318 320 323 326 328 329 329 331 332 333 333 333 334 333 334 334 334 335 334 334 334 334 334 333 334 334 334 334 334 333 332 333 334 334 334 334 332 330 330 329 329 328 328 328 326 326 326 325 325 324 323 322 321 319 316 314 311 309 310 315 318 318 318 317 317 318 317 317 317 318
311 311 312 313 312 311 310 309 310 312 309 307 309 309 312 313 311 308 306 305 308 310 312 312 312 313 313 315 317 319 323 326 327 327 329 330 331 332 332 333 332 333 334 333 334 334 334 334 334 334 333 333 333 333 334 334 333 332 332 333 334 333 334 334 332 331 329 328 328 327 327 326 327 327 326 325 324 324 324 323 322 320 317 313 310 309 313 316 317 317 317 317 317 317 317 317 317
311 310 312 313 311 310 311 309 309 312 310 308 310 309 311 314 311 307 306 306 308 310 312 311 310 310 310 311 313 315 318 322 324 325 327 327 328 329 329 330 330 331 331 331 332 334 334 333 333 333 333 333 332 333 332 333 333 332 332 332 333 333 333 334 333 332 330 329 329 328 328 328 327 327 327 326 325 324 325 325 324 323 320 316 311 309 310 313 315 316 316 316 317 316 317 317 317
311 311 312 313 312 310 311 309 308 310 311 310 310 311 312 314 312 307 305 307 308 310 311 311 311 310 310 310 310 311 313 316 319 320 322 324 325 325 326 327 327 328 328 329 331 332 333 333 333 332 333 333 332 332 332 332 332 331 331 331 331 332 332 333 333 333 332 330 330 330 330 329 329 328 328 327 326 325 325 325 324 324 323 318 315 312 309 310 311 313 315 315 316 316 316 317 317
311 312 313 312 312 309 310 311 309 308 311 312 310 311 312 313 313 309 307 307 308 310 312 312 312 311 312 311 310 310 311 311 314 316 317 320 322 322 323 324 324 326 326 327 329 330 331 332 333 332 332 333 332 332 332 331 331 331 331 331 331 331 331 332 332 333 332 331 331 330 330 329 329 329 328 328 327 326 325 325 325 325 324 321 319 317 314 312 310 310 312 314 315 315 315 315 316
311 312 311 311 311 310 310 311 309 309 311 313 312 312 312 313 313 312 311 308 308 310 312 312 312 312 312 312 311 311 311 311 312 314 313 314 316 318 320 321 322 323 323 324 326 328 329 332 332 331 331 332 332 332 332 331 331 331 331 331 331 331 332 332 333 332 331 331 331 331 331 330 330 330 329 328 328 327 326 325 325 325 325 323 321 319 318 316 314 311 310 311 313 314 314 314 315
313 313 312 312 311 310 311 310 307 308 312 312 313 312 313 313 313 313 313 310 309 311 310 311 311 311 312 312 312 312 312 312 313 313 311 311 312 313 315 318 320 321 322 322 324 325 327 329 330 330 330 331 331 332 332 332 332 332 331 331 330 330 331 332 333 332 330 330 330 331 331 330 330 330 328 328 329 328 327 326 325 325 325 324 322 321 320 319 318 315 312 311 312 313 313 313 314
313 313 312 314 314 310 311 310 307 307 312 313 314 314 313 313 313 313 314 312 311 311 311 312 312 313 314 314 314 314 313 314 314 311 309 310 310 310 310 312 315 318 321 322 323 324 324 326 328 329 330 330 330 331 331 332 332 332 331 331 331 330 330 331 332 333 332 331 331 330 330 330 330 329 328 327 328 329 328 327 326 325 325 325 325 323 321 319 318 317 314 312 312 312 312 313 313
312 313 312 313 314 312 310 309 308 307 311 313 312 313 313 314 314 314 314 313 312 312 312 313 314 314 315 315 315 315 315 315 314 311 309 309 308 309 308 308 310 313 317 320 321 322 322 324 326 327 328 329 329 330 330 331 331 331 331 331 332 332 332 331 331 332 332 332 331 331 330 330 330 330 329 328 328 328 328 327 326 326 325 325 325 322 319 317 316 315 314 312 312 311 311 311 312
313 313 312 312 312 312 309 309 309 307 310 314 313 313 314 315 315 314 314 314 314 314 314 315 315 316 315 315 315 315 315 316 314 312 312 310 308 307 307 307 308 309 311 314 317 320 322 323 324 325 327 327 328 329 329 330 330 330 330 331 332 332 332 332 332 331 331 331 331 331 330 330 330 329 328 329 329 328 328 327 326 327 326 325 324 322 320 318 316 315 314 313 311 310 310 310 310
314 314 312 312 314 312 310 310 309 307 308 311 312 313 314 315 314 314 314 312 313 312 311 312 313 314 315 315 316 314 314 314 314 313 313 312 310 308 307 306 307 307 308 311 313 317 321 322 323 324 325 325 326 327 328 329 330 329 330 330 330 330 330 330 330 330 330 330 330 329 329 329 329 329 328 329 330 329 328 327 327 327 327 327 325 323 321 320 319 316 315 314 311 310 310 309 309
314 317 315 315 315 313 312 311 309 308 308 309 312 312 312 315 315 314 312 308 308 308 308 309 310 311 312 312 314 312 312 313 313 313 313 313 311 309 307 306 306 306 307 308 310 313 317 319 320 322 323 324 325 325 326 328 329 329 329 329 329 329 329 329 328 328 328 328 327 327 328 328 329 330 330 330 330 330 328 328 327 327 327 327 326 323 321 321 319 316 315 315 313 312 311 310 308
314 316 316 316 315 314 315 314 311 312 311 309 311 309 310 314 314 314 313 310 310 310 310 311 311 311 310 309 311 311 311 311 310 311 312 312 311 309 308 306 305 305 306 307 307 309 312 314 317 321 322 323 324 324 325 326 328 328 328 328 328 328 329 330 330 329 329 328 328 329 330 331 331 330 330 330 331 330 329 328 328 327 326 326 325 323 320 318 316 314 314 313 314 314 312 310 308
313 314 315 316 316 317 319 317 314 312 311 309 309 310 310 312 314 315 313 311 312 312 313 314 313 311 309 309 310 310 309 309 309 309 309 309 309 309 308 307 305 305 305 305 306 307 308 311 314 317 319 322 322 323 323 325 326 327 327 327 327 327 328 329 330 331 331 331 331 331 331 332 332 331 330 330 330 329 329 329 328 326 325 324 325 322 319 318 317 316 315 314 314 314 312 309 309
315 315 315 316 317 321 321 317 314 313 312 311 311 313 311 310 313 315 311 311 313 313 314 316 314 311 309 309 309 309 309 308 309 309 308 308 308 308 308 307 306 305 304 304 305 306 306 308 310 313 316 319 320 321 322 324 325 325 326 326 327 327 327 328 328 329 330 331 331 331 331 331 331 330 329 330 330 329 329 328 327 326 324 324 324 323 321 321 319 318 316 314 313 312 311 310 310
316 312 313 316 317 320 320 315 313 312 311 312 313 314 311 309 314 314 310 311 313 314 315 315 313 311 311 310 310 311 310 309 309 309 309 308 307 307 306 306 306 305 305 304 304 305 306 307 308 310 314 316 317 319 322 323 324 324 325 326 326 326 327 327 328 328 328 329 329 330 329 329 329 328 328 329 329 328 328 327 327 326 326 325 324 323 323 322 320 318 317 315 314 312 310 310 309
313 308 312 316 317 317 317 314 312 311 311 313 314 312 310 309 313 313 310 310 313 313 313 313 312 313 314 313 313 312 310 310 309 308 309 308 307 305 304 306 307 306 305 305 305 305 306 306 308 309 312 314 316 319 321 322 323 324 325 325 326 326 326 326 327 326 326 327 327 327 327 326 327 328 328 328 327 327 327 328 327 327 326 325 324 323 322 320 318 316 317 317 315 312 310 309 309
310 311 314 316 316 315 314 312 311 311 312 312 310 309 309 308 313 315 312 311 312 313 312 311 313 314 315 315 315 311 308 308 308 309 311 309 307 306 306 309 310 307 306 306 306 307 307 308 308 309 312 314 317 319 320 321 323 323 324 324 325 325 325 325 325 325 325 325 325 326 326 326 326 326 326 327 327 327 328 328 327 326 326 325 325 324 322 320 318 318 318 318 317 315 313 311 309
311 315 315 314 314 314 313 312 311 312 312 309 306 307 309 309 311 314 312 311 310 310 310 311 313 313 314 317 315 310 308 308 308 310 312 312 311 311 311 311 310 309 309 308 308 310 310 310 310 312 314 316 318 319 320 321 322 323 323 324 324 325 325 324 324 324 324 324 324 324 325 325 325 325 325 325 325 325 325 325 324 324 324 325 325 324 323 321 321 320 320 320 319 317 315 312 310
312 314 313 313 313 313 313 314 312 313 311 307 305 307 309 310 311 311 311 312 310 308 309 311 312 312 314 317 315 311 310 309 308 311 313 313 314 314 314 313 312 311 311 310 311 312 312 313 314 315 316 317 318 318 320 321 322 323 323 323 324 324 324 324 323 323 323 323 323 323 323 324 324 324 324 324 324 324 323 323 322 322 322 323 324 324 324 323 322 321 320 319 318 316 314 312 311
312 314 313 312 314 313 314 313 311 311 310 306 305 308 310 311 311 312 312 312 311 308 307 309 310 310 311 312 311 312 314 311 310 314 315 313 314 314 313 313 313 313 313 313 313 313 314 315 316 317 317 317 318 319 320 321 321 322 322 322 323 323 323 323 323 322 322 323 323 322 322 322 322 323 323 324 324 324 323 322 322 321 322 322 323 324 323 323 322 320 319 318 317 316 314 313 312
314 316 314 313 314 314 314 312 312 312 310 307 305 308 312 311 310 311 310 309 309 307 306 307 308 308 308 308 309 313 315 312 312 317 317 314 313 312 312 312 312 313 313 314 314 314 315 316 317 317 318 318 319 320 320 321 321 322 322 322 322 322 322 322 321 321 322 322 322 322 321 322 322 322 323 323 322 322 322 322 321 321 321 321 322 322 322 321 321 320 319 318 317 316 314 314 312
313 313 311 312 314 313 310 308 309 309 309 309 308 310 312 312 311 312 311 308 308 307 306 306 309 308 308 312 315 317 317 314 315 319 319 315 312 310 310 311 312 312 313 314 315 316 316 317 317 318 318 319 320 320 321 321 322 322 322 322 322 322 321 320 320 320 321 321 321 321 321 321 321 321 321 321 320 320 320 320 320 320 319 319 319 319 318 319 318 318 318 317 317 315 314 313 312
311 310 310 310 313 315 311 306 304 305 308 311 310 311 312 310 311 313 311 310 310 310 308 308 312 311 311 316 320 321 322 319 316 317 317 315 313 311 310 311 312 313 313 315 315 316 316 317 318 318 319 319 320 320 321 321 321 321 322 322 322 321 321 321 321 321 321 320 320 320 319 319 319 318 319 319 319 318 318 318 318 318 317 317 317 317 316 316 315 315 316 316 315 315 314 313 312
311 312 312 309 310 313 311 309 308 307 309 311 309 310 310 308 310 313 312 311 311 311 309 307 311 314 314 319 322 321 321 319 315 314 314 313 311 310 310 310 313 313 314 315 315 315 316 316 317 317 318 318 318 319 320 320 320 320 320 320 321 320 320 320 320 320 319 318 318 318 318 317 317 316 316 316 316 316 316 315 315 315 315 315 315 315 315 314 314 314 313 313 314 314 314 313 313
312 312 312 311 312 312 309 310 311 310 310 311 309 307 307 309 310 311 311 311 311 311 310 308 309 313 315 318 321 319 319 318 316 315 315 314 312 311 310 310 312 313 313 314 314 315 315 316 316 316 316 316 317 317 317 317 317 317 317 317 317 317 317 317 317 317 316 316 316 315 315 314 314 314 314 314 313 313 313 313 313 313 313 313 313 313 313 313 313 313 312 312 312 312 313 313 312
309 308 309 311 313 311 310 310 310 310 310 310 310 307 307 311 311 309 310 311 310 309 313 313 312 314 316 316 319 320 321 320 316 313 314 314 312 310 309 310 310 311 312 312 313 314 314 314 314 314 314 314 314 314 315 314 315 315 315 315 315 314 314 314 314 314 314 314 313 313 313 313 312 312 312 312 312 312 311 311 311 311 311 311 311 311 311 311 311 311 311 311 311 311 311 311 311
309 309 310 311 311 310 311 309 308 310 309 309 310 308 308 311 310 309 309 310 309 309 312 316 314 313 313 315 317 320 321 316 312 311 313 314 312 309 308 309 309 310 310 311 312 313 313 313 313 313 313 313 313 313 313 313 313 313 313 313 313 313 313 313 312 312 312 312 312 312 312 311 311 311 311 311 311 310 310 310 309 310 310 310 310 310 310 310 310 310 310 310 310 310 310 310 310
313 311 311 313 313 311 312 312 309 308 308 308 308 308 310 312 310 309 310 310 308 306 309 314 315 314 315 317 317 316 316 311 308 310 312 313 313 310 308 308 309 309 309 310 311 311 311 312 312 312 312 312 312 312 312 312 312 313 312 312 312 312 312 312 312 312 311 311 311 310 310 310 310 310 310 310 310 309 309 309 308 309 308 308 309 309 309 309 309 309 309 309 309 309 309 309 309
Wind_Speed
2 2 3 4 3 3 1 1 1 1 1 0 1 1 3 1 2 4 6 5 4 5 3 3 9 8 2 2 1 3 4 1 3 2 1 4 6 13 11 13 14 13 14 13 15 15 14 13 12 12 11 11 11 11 12 13 14 14 15 16 15 15 14 13 10 10 13 13 15 17 18 18 18 18 18 18 18 18 18 18 17 18 18 18 18 18 17 17 17 17 18 18 18 18 18 18 18
2 3 4 4 3 2 1 1 2 2 2 2 2 0 4 3 3 6 8 6 3 5 4 5 9 5 1 3 1 1 2 4 5 3 3 4 11 12 10 14 15 15 14 13 15 15 14 12 12 12 11 11 11 11 12 12 13 14 15 16 16 14 13 13 11 9 12 13 14 17 18 18 18 18 17 17 17 17 17 17 16 17 17 17 17 17 17 17 17 17 17 18 18 18 17 17 17
2 4 4 4 3 1 1 1 2 2 3 1 3 2 4 5 6 5 6 5 5 6 5 6 7 4 2 3 2 2 1 3 2 3 4 8 11 11 12 15 16 15 14 14 15 15 14 13 13 12 11 12 11 11 11 11 12 13 15 15 15 14 13 13 11 9 12 13 13 16 17 17 18 17 17 17 17 17 16 16 16 16 16 16 16 16 17 16 16 16 16 17 17 17 17 17 17
3 5 4 1 1 1 1 1 1 2 3 1 1 5 6 6 6 6 7 6 6 6 6 7 6 2 3 2 1 1 2 3 3 3 5 10 8 11 15 16 17 15 14 14 14 14 13 14 13 12 12 11 11 11 10 10 11 12 14 15 15 14 13 12 11 9 11 12 13 15 16 17 17 17 16 16 16 16 16 15 15 15 15 15 15 15 16 16 16 16 16 16 16 17 16 16 16
2 2 3 3 2 1 0 1 0 3 1 0 0 5 7 5 7 8 7 7 6 3 5 8 4 2 2 2 2 1 3 4 5 5 8 10 8 13 16 17 17 14 14 14 15 14 13 15 14 13 12 11 10 10 10 10 10 12 13 14 15 14 12 12 11 9 10 12 12 14 15 16 16 16 16 16 16 15 15 15 14 14 14 15 14 14 15 16 17 16 16 16 16 16 16 15 16
4 4 3 2 1 0 1 2 2 2 2 1 1 4 7 5 7 10 9 7 4 1 2 5 2 2 2 2 1 2 3 3 6 7 9 11 10 14 16 17 16 14 14 14 15 14 14 15 14 14 12 11 10 10 9 9 10 11 11 13 14 13 12 12 10 9 10 11 12 13 14 16 16 16 15 15 15 15 14 14 13 12 13 13 13 14 14 16 15 15 15 15 15 15 15 15 15
3 3 3 3 3 1 2 2 1 2 2 1 3 2 7 7 7 11 11 7 4 1 2 3 1 2 2 2 2 2 2 1 6 9 10 11 13 15 15 16 16 15 14 13 15 14 14 15 15 14 12 12 10 9 9 8 9 9 10 12 12 11 12 13 10 8 10 11 12 12 14 16 16 15 14 15 14 14 14 14 13 12 13 13 13 14 14 14 14 14 14 15 15 14 15 14 14
2 0 1 1 2 1 1 1 0 0 1 1 2 1 3 7 8 11 11 6 4 4 3 3 2 3 2 1 1 4 2 2 5 8 12 13 15 15 15 16 16 16 14 13 14 14 14 15 14 14 12 11 10 9 9 9 9 9 9 10 11 11 12 13 11 8 9 10 12 12 14 15 14 13 13 14 14 14 13 13 14 13 13 14 13 14 13 13 13 13 13 14 14 14 14 14 14
0 1 1 2 2 1 1 1 1 1 1 1 2 1 0 4 6 8 11 5 2 4 4 4 4 2 4 3 1 4 4 5 5 8 14 15 16 16 16 17 16 17 16 13 13 14 14 14 14 13 12 11 10 9 9 8 8 8 8 8 10 11 11 13 12 9 9 10 11 11 13 13 13 12 11 12 13 13 13 12 13 13 13 13 12 13 12 12 12 12 13 12 12 13 13 14 14
1 1 1 2 1 2 2 1 1 0 1 1 1 1 2 5 5 5 9 5 3 4 4 3 2 2 3 4 2 3 5 8 7 10 15 16 17 16 16 16 16 17 16 14 13 13 14 14 14 13 12 11 11 10 9 8 8 8 8 8 8 10 10 11 13 11 10 10 10 10 11 11 12 11 10 11 12 12 12 12 12 12 11 12 12 12 12 11 11 11 11 11 11 12 13 13 13
1 1 0 2 2 2 2 2 2 1 1 1 1 2 2 6 5 4 5 4 3 3 5 3 3 4 3 2 2 3 7 10 10 13 16 17 17 15 15 16 15 16 16 15 14 13 14 14 14 14 13 11 11 10 10 9 8 8 8 8 7 8 9 10 11 11 11 10 9 9 9 9 10 10 10 11 12 12 11 12 12 12 11 11 11 11 11 11 11 11 10 10 10 11 12 13 14
1 2 1 2 2 1 1 2 3 2 1 2 4 3 3 6 6 7 6 4 4 4 6 6 2 3 4 2 2 5 7 10 11 14 16 16 17 15 15 15 16 15 15 15 14 14 13 14 14 14 13 12 11 11 10 9 8 8 7 8 7 7 8 8 9 10 10 10 9 9 9 9 9 9 9 11 12 11 11 12 12 12 11 10 11 11 11 11 10 10 10 10 10 11 11 12 14
1 2 3 2 1 1 2 2 2 1 3 4 4 4 4 8 7 7 7 4 6 6 5 5 2 1 3 2 3 4 7 11 13 15 16 17 16 15 14 14 15 15 14 15 14 14 13 14 13 13 14 12 11 11 10 9 8 7 7 7 7 7 7 7 7 9 10 10 9 9 10 9 10 10 10 12 11 9 11 13 11 11 10 10 10 10 10 10 9 10 10 11 10 11 11 12 14
1 1 1 2 0 1 2 1 3 3 3 4 4 6 5 5 3 4 6 6 6 4 1 2 2 2 2 2 3 4 9 13 14 15 16 16 15 14 14 13 15 14 14 15 14 14 14 14 14 13 13 12 11 11 11 10 9 8 7 7 7 6 6 6 6 8 9 8 7 8 9 9 10 10 12 13 12 10 10 13 13 10 10 9 9 9 9 9 9 10 10 10 11 11 11 13 14
1 1 1 3 2 2 2 0 2 3 3 6 4 6 6 1 0 3 5 5 4 3 2 2 2 2 1 3 3 5 11 15 15 16 16 15 15 14 13 13 14 14 14 14 14 15 14 14 13 13 14 13 11 11 10 10 10 9 8 7 7 6 6 6 5 6 7 7 6 6 7 8 8 10 13 14 12 11 9 12 13 11 9 9 9 9 9 9 10 10 10 10 11 11 12 13 14
1 2 2 3 2 2 3 1 2 3 3 7 4 5 7 3 1 3 1 2 2 3 1 3 2 2 2 1 3 6 12 16 15 16 16 15 14 13 13 13 13 13 14 14 14 14 14 14 14 13 13 13 12 11 10 10 11 10 8 7 7 7 7 7 6 5 6 6 5 5 6 6 7 10 14 13 12 11 9 11 13 11 9 8 8 9 9 9 10 10 10 10 10 11 12 13 13
1 2 2 2 2 2 4 5 4 2 4 6 5 7 9 6 2 1 1 2 1 4 2 1 2 2 3 3 3 5 11 15 16 17 16 16 15 14 13 13 13 13 14 15 15 14 15 15 14 13 12 13 13 12 11 10 11 10 9 8 8 7 7 7 6 5 5 5 5 5 6 7 8 11 13 12 11 11 10 10 11 11 10 9 8 9 9 9 9 9 9 9 9 10 11 12 12
2 3 3 3 3 2 4 7 4 1 5 8 8 9 9 7 6 3 3 3 1 2 3 2 2 3 0 2 2 6 11 14 18 18 18 18 17 16 15 14 14 14 14 15 15 14 14 15 15 14 13 13 13 13 12 11 11 11 10 9 9 8 8 7 6 6 6 6 6 6 6 7 8 10 12 11 9 10 10 10 11 10 10 10 8 8 9 9 9 9 8 8 8 9 10 11 12
1 2 3 3 3 2 2 5 4 1 4 9 8 7 5 5 8 6 5 5 4 5 5 4 4 5 5 2 3 8 12 16 19 20 20 21 20 19 17 16 16 16 15 16 16 15 14 13 15 16 14 14 14 12 12 12 11 11 11 10 9 9 9 8 7 7 6 7 6 6 7 7 8 10 11 11 9 10 10 10 10 10 10 10 9 9 9 9 9 8 8 8 8 9 10 10 10
0 2 4 3 3 2 1 3 4 1 2 7 9 5 3 2 5 5 5 5 5 8 6 6 7 9 9 5 6 11 13 16 19 20 20 21 21 21 20 19 18 18 17 16 16 16 15 14 15 17 16 15 14 13 13 13 12 12 12 11 9 8 9 8 8 7 7 7 8 7 7 8 8 8 10 11 10 9 9 9 9 10 11 11 10 8 9 9 8 9 8 8 8 9 11 10 9
2 2 2 3 3 3 3 3 2 2 1 5 8 6 5 3 2 4 6 5 6 9 8 9 10 10 11 8 10 16 16 17 19 20 21 21 21 21 21 20 18 17 16 16 16 17 17 16 15 16 16 16 15 15 14 14 14 13 13 13 11 8 9 8 8 7 7 8 9 9 9 8 8 9 10 12 11 9 8 8 8 8 8 10 10 5 7 9 9 10 10 9 10 10 11 12 10
3 1 2 3 2 2 4 2 2 2 1 4 9 8 6 5 3 5 7 8 4 3 5 7 7 4 9 10 13 17 18 19 20 21 22 22 22 22 21 19 17 17 16 17 17 17 17 18 16 15 16 17 16 15 14 15 15 15 14 13 11 9 9 9 8 8 8 9 9 10 10 9 9 10 11 12 13 11 10 9 9 8 7 8 8 5 6 9 10 12 11 10 11 11 11 12 12
2 2 2 2 0 2 3 2 2 2 3 6 7 5 6 7 5 2 7 9 1 4 1 2 3 1 7 12 14 16 18 19 21 24 25 24 24 24 21 19 18 18 18 18 17 17 17 18 18 17 16 17 17 16 15 15 15 15 15 15 13 11 11 10 10 9 9 10 9 10 11 11 10 11 11 12 12 12 12 11 11 10 8 7 7 7 8 11 13 13 12 11 11 11 11 12 13
1 3 3 2 1 2 2 1 3 2 3 3 3 4 6 8 5 2 7 10 2 4 2 2 0 4 8 12 13 15 18 20 22 23 23 22 23 22 20 19 18 19 19 19 19 18 19 19 19 19 18 17 18 17 16 16 16 16 16 19 17 14 15 13 11 10 9 11 9 9 12 13 11 12 12 12 13 13 13 12 12 11 9 9 9 10 11 13 13 13 12 12 11 11 12 13 14
1 4 5 3 1 3 2 2 4 2 1 2 3 5 4 3 2 2 8 9 4 3 2 2 3 5 8 10 12 14 15 18 19 19 19 19 18 18 19 18 18 19 20 20 20 19 19 19 20 21 20 19 18 18 17 16 17 17 18 21 19 18 18 14 13 14 12 12 10 9 13 14 13 13 13 13 13 14 13 13 12 12 11 11 12 12 12 13 13 13 13 12 12 12 13 14 15
1 4 5 5 3 3 3 3 4 2 2 2 5 5 2 2 1 5 8 4 1 1 2 3 4 6 7 9 11 13 14 17 18 17 18 17 16 18 20 20 19 20 21 20 20 20 20 20 20 20 21 21 20 19 19 18 18 19 19 20 20 21 18 14 15 17 15 13 11 10 12 15 15 14 14 14 14 14 13 13 13 12 12 12 12 13 14 14 14 14 14 13 13 13 14 15 15
5 8 7 6 3 2 0 4 4 2 3 1 5 5 2 2 1 5 3 2 1 3 4 4 5 7 8 8 9 12 13 15 17 15 16 16 16 19 21 21 22 21 20 20 21 20 20 20 21 20 20 20 21 22 21 20 19 20 20 20 22 23 20 18 19 17 16 16 14 12 11 13 16 16 15 15 14 15 14 14 14 13 13 12 13 14 15 15 15 15 14 14 14 14 15 15 16
7 10 10 6 3 4 2 4 4 1 4 0 2 4 2 3 3 4 4 3 2 6 6 5 7 7 7 7 7 9 10 12 13 13 16 19 19 20 22 23 23 21 21 22 21 20 20 20 21 21 21 20 21 23 23 23 22 20 21 22 23 24 23 22 23 20 18 18 18 17 14 11 16 18 16 15 15 15 15 15 15 14 15 14 14 15 16 16 16 16 15 15 15 15 15 16 17
5 5 6 5 3 4 3 2 1 2 3 0 1 3 4 7 8 3 4 2 1 4 6 6 7 6 5 6 5 7 9 9 11 14 18 20 20 20 22 23 22 21 20 20 20 20 20 20 20 21 21 22 23 23 21 23 25 23 21 22 23 24 25 24 24 23 21 20 20 21 18 13 15 19 18 16 16 16 16 16 15 15 16 15 15 15 16 17 17 16 16 15 15 16 16 16 17
4 1 2 5 4 3 2 2 1 1 2 2 2 4 6 8 7 3 4 0 1 4 6 6 6 5 5 5 5 6 8 10 13 17 18 18 18 18 20 19 20 20 18 17 20 22 21 19 19 20 22 23 24 24 21 20 23 26 24 22 23 24 25 25 25 25 23 22 20 20 20 17 17 20 20 18 17 17 17 16 16 17 17 16 16 16 16 17 18 18 17 17 17 16 16 17 17
3 3 1 2 4 3 3 2 2 3 2 2 3 6 5 3 2 2 2 1 2 5 6 6 5 5 5 5 6 7 8 12 15 17 17 17 17 17 18 18 19 20 19 20 22 22 21 20 19 19 21 23 24 25 25 21 19 23 25 24 24 25 26 26 26 27 25 23 21 20 21 20 20 21 21 21 20 19 18 17 17 17 17 17 17 16 17 19 19 19 19 18 18 18 18 18 18
2 3 3 1 3 2 3 2 2 1 2 1 4 5 5 3 1 3 2 0 3 7 6 5 5 5 5 5 6 7 7 11 14 16 17 18 19 21 22 22 22 23 25 26 23 21 21 21 20 19 20 22 22 24 24 22 19 20 24 25 25 26 26 27 28 28 26 24 23 22 21 20 21 21 22 23 22 21 20 19 19 19 18 17 18 18 18 19 20 20 20 20 19 19 20 20 20
0 2 3 3 3 2 2 2 2 3 2 3 5 3 3 2 1 3 1 0 2 5 6 5 6 6 6 5 6 6 7 9 12 16 20 21 24 28 29 28 27 28 30 29 25 24 23 23 22 21 21 22 23 23 22 21 21 20 22 25 26 26 27 28 28 28 27 25 24 24 22 20 20 20 21 23 24 24 23 22 21 20 19 18 19 19 19 20 21 21 22 22 20 20 21 22 22
3 1 1 1 2 2 2 3 2 2 2 5 5 5 6 2 0 2 2 1 1 4 6 5 6 5 5 5 5 6 7 8 10 15 22 26 29 33 32 31 31 30 31 30 29 28 26 23 23 23 22 21 21 22 23 23 22 20 19 21 24 26 28 29 29 29 29 28 27 27 24 22 21 21 21 21 24 25 24 24 24 22 20 20 20 20 20 21 21 22 22 23 23 21 21 22 24
7 5 4 2 2 3 3 2 1 1 3 5 6 7 11 9 7 6 4 4 4 7 7 6 6 6 6 5 6 7 7 9 11 14 19 24 28 32 33 33 32 31 31 31 30 30 28 24 23 23 22 21 20 20 21 22 22 23 22 20 20 23 26 28 28 28 29 30 29 29 27 25 24 24 22 21 23 25 26 28 28 26 23 23 23 23 23 24 24 24 24 25 25 25 22 22 25
8 6 4 4 4 3 2 1 2 1 3 6 8 9 11 10 11 10 5 5 5 9 8 7 7 7 7 6 6 7 8 10 11 13 18 21 25 29 31 32 33 32 32 31 30 30 29 27 25 24 23 22 21 19 20 20 20 23 25 24 24 24 24 25 26 28 30 31 32 30 29 28 26 25 23 23 25 28 30 31 30 29 26 25 26 26 27 27 26 25 26 27 27 27 26 24 26
5 5 2 2 3 2 2 2 2 1 4 5 6 8 10 11 11 12 8 4 6 10 9 9 9 8 8 8 8 8 9 9 7 10 16 19 23 25 26 29 30 30 31 31 31 31 33 32 29 27 24 23 22 22 22 21 21 22 24 27 28 28 27 25 24 26 28 31 33 33 33 32 28 26 24 24 27 29 31 32 31 31 30 28 29 30 31 30 29 27 28 28 28 28 28 28 29
4 4 3 2 2 1 2 1 2 1 3 3 1 6 11 12 12 11 9 8 10 11 11 12 11 10 8 8 9 9 8 7 5 7 12 15 19 21 22 24 26 28 31 32 33 34 35 33 32 31 27 24 24 24 23 23 24 23 22 23 24 25 27 27 24 22 23 25 28 30 32 32 29 28 26 25 28 30 31 33 32 33 33 32 33 34 33 32 31 29 28 29 29 28 28 29 31
3 2 3 3 2 1 1 2 3 1 2 1 1 5 11 11 10 10 11 11 10 9 11 11 10 10 9 7 8 8 8 7 6 8 9 12 16 18 20 22 25 27 29 31 34 34 33 32 33 32 30 28 26 25 25 24 23 23 21 21 21 21 22 23 21 20 21 22 23 24 26 28 28 29 29 29 30 28 29 32 32 34 36 36 36 36 35 34 33 32 31 31 29 27 27 29 32
2 3 3 2 1 1 2 3 2 1 1 2 2 5 10 10 9 10 10 8 7 7 9 10 9 10 10 6 6 6 9 9 8 8 8 9 12 14 19 23 25 26 27 29 31 32 32 33 35 34 33 32 29 27 26 23 20 21 21 20 21 22 21 20 20 20 21 22 23 24 25 26 28 31 32 33 31 27 26 29 31 33 36 37 38 37 37 37 36 36 35 35 31 28 28 30 31
1 2 3 2 3 3 1 3 2 1 1 1 3 6 8 6 6 7 4 2 5 6 7 10 9 10 9 7 8 9 10 10 10 9 8 8 9 10 15 20 24 26 28 30 31 32 33 34 36 35 34 34 32 29 25 21 20 20 21 20 20 21 22 23 24 26 26 26 26 29 31 32 32 33 35 34 32 30 29 28 30 33 36 38 39 39 40 39 39 39 38 38 36 33 31 29 28
2 4 3 2 5 5 3 3 3 2 2 1 2 6 5 1 2 6 1 1 5 3 4 9 8 6 6 7 9 9 9 9 10 10 8 7 9 10 11 16 21 25 28 30 31 31 32 33 33 32 31 31 31 30 24 20 21 22 23 24 23 22 21 21 26 29 31 31 30 29 33 34 31 31 33 33 33 35 33 30 30 34 37 39 39 40 40 38 38 40 39 38 38 39 35 29 28
2 3 2 3 5 7 6 5 3 2 1 1 1 5 4 2 4 4 1 4 7 4 6 9 6 4 4 5 6 5 6 7 7 9 9 8 9 10 10 13 18 22 25 27 28 29 29 30 30 30 30 30 30 30 24 20 21 23 25 26 25 23 21 20 23 25 26 28 28 27 27 28 28 27 29 32 35 36 34 32 33 35 37 38 37 38 39 39 39 40 40 39 39 41 37 32 32
2 1 2 5 6 7 7 5 2 1 1 0 0 1 4 6 4 1 3 5 8 6 8 7 3 3 4 4 4 4 5 5 5 7 7 8 8 9 9 10 14 18 21 23 25 26 27 28 28 28 28 28 30 27 22 20 21 23 25 26 24 23 22 20 20 22 22 21 21 22 20 19 22 26 28 30 31 31 30 30 31 33 35 35 35 37 38 39 41 41 40 40 41 41 39 37 37
0 1 1 4 5 5 4 3 2 2 2 4 2 2 4 6 3 1 2 4 7 8 8 4 1 2 3 2 3 3 3 4 5 6 6 7 7 7 8 8 10 15 17 19 20 22 25 25 25 26 26 26 27 24 20 20 21 21 22 23 23 22 22 21 19 20 21 19 19 20 20 21 24 26 28 28 28 27 28 31 31 32 34 35 35 36 37 38 40 41 41 41 42 41 40 38 36
3 4 4 5 5 5 3 2 2 2 3 5 2 2 5 6 3 2 1 2 7 8 6 3 2 2 2 2 3 3 3 3 4 5 7 7 6 6 7 7 8 11 14 15 15 17 20 22 24 24 24 25 24 21 19 20 21 21 21 21 22 21 21 23 22 22 22 21 22 23 23 26 26 26 29 30 30 30 30 30 29 31 33 34 34 34 36 37 37 39 40 40 41 40 39 37 36
7 6 6 7 4 3 3 2 2 1 4 2 3 3 4 4 3 3 3 2 4 4 1 1 2 2 2 2 2 3 3 3 3 4 4 4 3 3 4 4 4 7 10 12 13 14 16 19 22 22 22 23 21 18 19 19 19 21 20 20 21 20 20 22 24 25 24 23 24 25 25 26 25 25 26 27 28 30 30 29 27 28 30 31 32 34 36 36 36 37 38 38 40 40 40 39 40
4 3 5 6 2 1 2 2 1 4 4 1 3 3 3 5 4 1 1 3 3 3 1 1 2 2 2 2 2 3 3 4 4 3 2 0 2 3 2 2 4 7 9 12 13 14 15 18 19 21 22 21 17 17 20 19 18 19 19 19 19 19 18 20 23 24 25 25 26 26 26 27 27 27 26 24 25 28 29 30 29 29 30 31 32 33 34 35 35 36 37 38 40 41 42 41 41
2 4 7 5 2 2 3 2 2 4 2 2 2 2 3 8 7 5 8 8 5 5 4 4 3 3 3 3 3 3 4 4 3 2 2 1 2 3 2 3 4 7 9 12 13 14 15 17 19 20 20 18 17 19 21 19 18 18 18 18 18 17 16 17 18 19 19 20 23 24 24 24 25 27 28 28 27 28 28 28 29 29 30 32 32 33 33 34 35 36 37 39 40 40 41 42 42
4 6 6 5 4 3 4 3 1 3 0 2 1 0 3 7 5 7 13 9 1 2 5 5 4 5 6 5 5 5 5 3 2 2 1 1 2 2 2 3 4 7 10 12 13 14 14 15 17 18 18 18 19 20 21 20 19 19 18 18 17 15 16 16 15 15 15 14 15 18 19 19 20 23 27 29 27 25 24 25 27 28 30 32 33 33 33 33 33 34 36 37 38 39 39 40 42
2 1 1 3 4 3 4 3 1 2 1 2 1 2 4 3 1 3 9 7 4 3 4 4 5 6 5 5 6 5 4 3 1 1 0 1 1 1 2 3 5 8 10 12 13 14 14 14 16 16 16 18 19 19 20 20 20 20 20 20 18 17 17 16 14 13 13 13 12 13 15 17 18 19 21 22 22 22 21 20 22 23 25 28 31 33 33 32 32 32 33 35 36 37 37 39 40
1 1 0 2 2 2 2 1 0 1 1 2 3 3 4 3 5 6 5 4 5 4 3 3 5 5 3 4 5 3 3 2 1 1 1 2 2 1 1 3 6 8 10 11 12 13 14 15 16 16 15 17 18 18 19 19 19 19 19 20 20 20 19 17 15 14 14 13 12 12 13 14 15 15 17 17 18 20 21 21 21 20 20 22 24 28 31 32 32 32 33 34 35 35 35 37 39
2 2 3 2 1 3 4 1 2 1 3 2 3 4 4 2 7 7 2 4 6 3 3 5 4 2 2 3 3 3 2 1 1 1 1 2 2 1 1 4 6 8 10 11 12 13 14 14 15 16 15 15 16 17 18 18 18 18 18 19 19 19 19 18 17 17 16 15 15 15 14 14 15 16 19 21 21 20 20 21 22 20 18 18 19 21 24 27 30 32 33 33 34 34 33 35 36
2 4 5 3 1 1 2 1 1 0 4 2 2 5 5 2 4 2 2 5 5 1 1 4 2 1 2 2 3 3 1 1 1 1 1 1 1 2 2 5 7 8 10 11 12 12 13 13 13 14 14 14 15 15 15 15 15 15 15 15 15 15 15 16 16 16 14 15 17 18 17 17 17 15 17 21 22 22 21 22 22 20 18 17 18 18 19 22 24 28 32 33 33 32 33 35 36
1 2 3 2 2 2 2 2 2 2 4 2 2 3 4 5 4 2 3 4 2 2 2 1 2 1 1 2 3 3 0 1 1 1 1 1 1 3 4 6 8 9 10 11 12 12 13 13 12 12 12 11 12 12 12 12 12 13 12 12 12 13 12 13 14 14 14 15 17 16 16 16 17 16 17 19 20 21 21 21 21 21 19 17 17 18 19 21 22 24 28 31 32 32 32 34 35
2 1 2 1 1 1 2 2 1 2 3 2 2 1 3 5 4 5 9 5 1 1 2 1 1 0 1 1 2 2 1 1 2 2 1 1 1 3 6 7 8 10 11 12 13 13 13 13 12 12 12 11 12 12 12 12 12 12 12 11 11 11 12 13 14 15 15 15 14 14 14 15 16 17 17 18 19 20 21 20 19 19 19 17 17 17 17 19 21 23 24 26 29 32 33 35 36
4 5 6 3 0 1 1 1 1 1 3 2 3 3 3 2 2 6 8 3 1 1 1 1 0 1 1 2 2 2 2 2 2 3 2 2 2 1 4 7 8 9 11 11 12 12 13 13 13 13 12 12 12 11 10 10 10 10 10 11 11 12 12 13 13 13 13 12 12 12 13 14 15 16 15 16 18 19 20 20 19 18 18 17 18 18 17 17 19 21 21 21 23 26 28 31 32
2 4 6 6 5 3 3 4 1 0 2 2 1 5 4 1 2 4 4 2 1 1 1 1 1 2 2 2 2 3 2 2 2 3 3 3 3 2 2 5 6 8 9 11 12 12 12 12 12 12 11 10 9 8 8 8 9 9 10 11 11 11 11 11 10 10 10 10 11 11 11 12 13 13 14 14 16 18 20 20 20 19 18 18 19 19 18 17 18 20 20 19 20 21 23 24 26
Wind_Direction
290 209 173 169 153 164 79 352 225 111 263 167 111 174 142 106 32 159 151 145 148 141 133 118 150 149 148 321 352 37 13 2 13 330 71 64 133 144 145 142 142 145 149 150 149 144 139 143 142 141 132 122 117 110 105 101 101 103 105 103 102 103 105 105 101 101 105 106 104 103 104 107 106 104 100 99 97 95 95 91 88 85 83 83 85 86 86 86 84 84 84 84 84 85 85 86 87
256 183 153 136 113 213 196 313 259 149 226 171 143 199 113 140 182 176 153 141 103 110 134 141 152 155 339 326 307 157 59 33 17 20 59 113 139 148 152 147 150 150 153 152 150 145 142 148 146 142 134 127 120 115 110 106 106 105 107 106 105 104 104 105 105 107 107 106 106 106 106 108 107 105 102 99 98 97 96 95 94 91 87 84 85 87 87 87 86 87 87 87 87 88 88 88 89
220 176 151 118 77 307 129 226 257 179 220 170 140 129 132 175 180 158 123 100 81 112 130 131 151 164 250 215 185 254 102 68 82 84 96 141 144 160 158 148 154 153 156 155 151 147 144 152 150 146 139 131 125 122 115 110 110 107 111 111 110 107 106 108 110 111 107 107 109 108 107 108 108 106 103 101 100 98 99 98 95 92 92 89 88 89 89 90 89 89 89 89 89 91 92 91 93
215 188 186 204 176 185 185 215 269 223 215 156 131 141 173 189 159 120 92 91 105 134 139 146 160 138 280 259 72 307 113 94 134 119 136 158 151 156 155 152 157 155 158 156 153 147 147 155 151 151 144 135 132 128 122 118 113 109 112 112 112 109 108 110 108 110 109 110 111 110 108 108 110 109 106 104 102 101 101 99 96 94 95 95 94 93 92 94 92 92 92 92 93 93 94 94 96
181 177 200 237 228 147 136 144 170 242 214 136 97 143 187 186 141 117 103 115 122 146 145 167 174 93 275 312 351 296 110 101 142 152 154 162 154 151 155 156 157 158 158 156 154 149 152 156 153 156 147 138 137 134 131 124 116 113 114 113 113 110 110 109 108 112 111 111 110 110 109 110 113 111 108 106 105 104 102 99 99 103 104 100 96 94 93 94 93 93 94 95 97 96 96 98 99
110 89 104 109 105 47 186 179 190 205 46 329 351 129 179 171 137 125 121 128 130 281 151 180 181 129 178 118 324 356 79 112 143 160 162 163 160 156 158 157 158 160 159 159 157 152 156 155 154 158 150 143 142 138 136 127 120 116 117 117 114 112 114 113 114 119 114 113 112 111 113 115 116 113 111 109 107 104 103 102 101 103 104 101 97 96 95 93 93 94 94 96 98 99 101 101 102
160 100 83 102 107 295 225 199 200 169 69 345 354 99 162 154 138 133 139 150 162 211 190 199 180 181 156 112 184 98 70 103 137 161 167 164 159 158 161 159 160 162 160 161 158 154 159 156 155 159 154 149 147 144 141 135 125 119 121 121 118 115 118 116 115 123 118 115 114 115 119 119 118 116 114 111 107 104 103 102 99 92 89 91 94 97 98 95 95 97 97 98 99 102 104 105 105
209 203 297 178 128 336 229 188 190 57 70 327 315 357 137 146 151 149 155 162 167 169 173 179 202 221 129 83 184 122 128 142 146 161 162 161 159 162 163 161 162 164 163 161 160 158 161 157 156 162 160 156 153 150 146 144 133 124 126 127 125 124 125 122 119 127 125 117 114 118 121 121 119 115 112 111 108 105 104 104 103 98 93 92 92 96 98 96 97 99 100 101 102 103 106 107 106
47 22 231 202 149 127 161 182 140 32 97 235 244 234 73 156 171 163 161 156 136 160 158 150 188 235 132 150 115 120 158 156 154 157 161 161 160 166 164 165 165 166 165 163 163 160 164 161 158 163 165 165 161 156 152 150 142 134 135 135 132 130 132 131 128 127 127 123 119 121 123 121 119 114 111 113 111 108 107 107 106 105 105 104 100 100 101 101 100 101 102 104 107 109 112 111 111
14 24 201 155 170 182 169 176 141 125 148 275 271 194 163 166 190 177 161 144 127 156 129 109 178 232 149 154 119 114 155 163 162 156 164 163 162 169 167 169 169 168 168 166 165 163 167 167 162 163 168 174 170 163 158 155 151 147 144 142 140 136 135 140 139 131 130 133 131 128 126 124 121 118 116 116 115 112 110 110 109 108 110 110 108 107 106 106 104 104 106 106 109 114 118 114 114
194 86 267 166 179 186 166 155 139 128 117 276 233 179 161 166 178 167 155 129 129 149 134 156 189 179 177 157 117 103 144 165 165 160 165 166 166 171 169 172 173 171 172 171 169 166 169 172 167 164 171 178 177 171 163 162 161 158 152 150 149 143 139 143 149 144 136 135 138 133 128 128 125 123 124 125 122 117 115 114 115 114 113 110 108 107 106 106 107 109 111 111 112 115 120 117 118
200 126 214 183 171 165 126 138 138 126 133 184 167 159 166 167 173 172 177 153 153 168 165 190 185 156 181 162 124 117 149 167 165 166 166 167 169 170 172 173 175 175 177 175 172 170 170 174 170 168 175 180 182 179 171 169 169 166 158 157 159 153 148 146 150 152 145 138 140 138 135 134 132 131 131 133 129 125 122 119 121 119 114 110 109 109 109 107 110 115 116 115 115 118 120 119 122
212 157 193 163 88 68 127 138 130 135 164 169 151 143 165 173 183 182 174 152 162 177 173 175 152 217 201 110 114 138 164 167 166 168 167 170 171 171 173 173 176 178 180 178 177 178 174 174 173 174 179 181 185 184 181 178 178 177 166 163 167 163 155 151 149 150 154 151 149 150 147 145 143 139 137 138 138 137 131 126 125 124 120 118 116 114 113 113 115 117 116 114 115 120 121 121 126
193 195 197 139 83 145 146 119 151 196 163 137 126 136 171 191 188 172 171 182 177 168 107 137 180 231 198 138 156 167 164 160 164 166 166 171 170 173 174 174 178 181 183 182 183 183 181 178 174 180 181 180 186 188 187 187 188 186 177 172 172 173 164 160 156 150 158 162 159 157 156 159 154 144 143 145 150 154 140 132 130 129 129 125 121 118 118 119 120 119 116 116 117 122 123 126 132
168 154 70 125 142 160 181 349 153 209 157 136 140 148 172 216 121 173 193 207 164 87 63 155 244 257 203 187 153 140 152 155 162 163 165 169 170 174 174 176 181 184 186 185 188 186 186 184 179 185 184 180 187 189 189 191 196 193 187 184 177 181 179 171 169 161 160 164 162 155 157 164 158 147 150 154 163 167 148 136 136 136 135 127 125 124 124 127 125 124 124 125 126 130 131 135 141
187 155 106 136 155 184 189 180 159 203 149 133 130 160 170 156 219 198 234 299 121 106 189 173 200 299 334 357 59 91 141 152 159 160 163 167 168 173 173 181 184 186 189 189 193 191 190 188 185 189 186 185 189 190 191 193 197 197 194 194 187 187 190 184 179 172 163 164 161 153 153 155 148 146 156 162 167 171 159 145 142 142 143 136 135 134 133 134 130 129 131 133 137 139 141 145 149
236 194 164 155 164 204 179 173 179 155 128 133 144 183 178 152 199 244 39 293 149 138 208 156 151 284 350 54 57 97 140 153 158 158 164 168 170 174 177 185 186 188 191 192 195 194 194 193 190 191 190 191 192 192 194 197 199 199 199 199 198 196 196 193 188 184 174 170 163 154 149 148 144 143 160 170 169 172 167 158 152 150 155 152 149 145 142 139 135 135 136 135 139 145 149 153 156
224 190 176 176 163 182 179 176 179 107 141 157 170 194 190 159 164 173 165 190 153 161 197 178 184 229 200 71 107 147 153 160 164 165 169 173 176 178 182 188 189 192 193 194 196 196 197 196 196 196 194 195 196 194 194 200 201 199 199 197 199 201 201 197 194 197 190 182 173 161 155 154 150 147 164 172 166 171 171 170 166 163 166 163 161 155 150 147 143 141 139 139 144 153 157 157 159
194 143 185 191 162 133 173 168 159 102 130 146 164 195 209 166 156 170 191 175 171 205 201 202 215 203 187 167 157 160 163 168 171 175 177 180 182 184 187 190 192 194 195 196 198 198 198 198 199 199 197 199 198 196 197 200 199 199 200 196 195 197 201 199 195 199 194 193 189 172 166 167 160 158 170 177 173 173 179 181 177 179 177 174 174 169 164 157 151 147 143 149 157 164 165 161 161
179 189 201 168 142 114 141 178 156 134 104 144 156 172 217 162 142 171 192 165 185 216 204 196 214 210 190 158 155 168 170 175 181 184 185 187 188 190 192 193 195 196 196 196 198 200 200 199 201 202 201 201 201 199 200 202 199 199 203 203 199 193 195 195 194 196 194 198 199 187 182 180 174 170 173 183 185 173 179 189 188 188 185 185 183 176 178 169 153 151 155 164 169 173 175 173 167
166 203 205 122 140 139 150 186 142 112 118 154 142 149 186 151 146 182 177 172 202 225 219 212 216 205 182 152 158 173 176 181 188 192 193 194 194 196 199 198 199 197 195 196 199 200 200 201 201 203 202 203 204 202 202 204 202 200 203 204 201 197 195 194 194 196 199 204 203 200 200 191 183 181 178 184 189 179 174 182 186 187 187 191 184 170 180 172 159 164 173 179 180 182 184 183 177
153 141 18 90 165 142 135 155 124 114 112 149 145 157 162 131 172 193 191 204 207 217 220 226 232 197 164 156 160 173 182 188 191 196 198 199 198 200 202 203 202 200 199 199 201 201 201 203 202 202 204 205 206 204 206 207 206 205 206 203 197 197 196 195 198 199 204 206 204 206 207 201 193 192 190 190 196 197 191 183 183 183 188 196 187 180 185 172 171 179 185 188 189 191 192 192 189
181 151 52 95 243 106 124 125 130 158 159 162 158 149 135 152 190 184 215 225 106 69 77 278 285 84 132 146 157 174 187 191 195 199 200 201 201 202 202 203 203 201 202 203 203 203 204 205 203 204 204 206 207 207 209 210 210 210 212 212 204 201 201 201 203 203 208 207 205 207 208 209 204 201 201 201 203 205 206 203 200 196 191 197 196 196 189 176 180 189 195 197 197 198 198 200 199
242 149 131 136 0 67 103 107 131 189 189 153 134 138 154 184 185 106 230 233 146 100 76 11 347 127 136 149 166 181 189 194 200 201 202 204 204 204 204 204 206 205 207 207 205 206 209 207 205 207 208 208 209 209 211 211 213 212 217 222 218 214 212 209 208 205 208 212 210 208 211 215 212 210 209 208 208 209 213 216 215 212 204 207 211 203 189 184 190 198 203 203 203 204 204 204 204
250 138 136 146 64 83 94 112 134 170 192 95 146 167 166 182 142 156 233 232 189 144 108 92 128 140 159 170 177 184 191 200 205 204 205 210 210 209 210 210 210 210 211 209 207 209 213 210 206 209 211 212 212 212 213 214 215 214 219 226 223 223 222 214 214 214 214 216 214 212 213 217 219 218 217 215 215 216 219 222 221 222 220 221 218 207 194 193 200 205 207 208 208 208 207 208 207
131 117 128 135 109 95 112 117 124 151 142 162 180 160 92 74 39 249 231 213 141 169 167 153 150 165 183 183 184 187 193 201 203 204 206 209 211 211 214 214 213 212 211 210 210 212 213 213 209 207 210 214 216 215 216 217 219 218 221 226 222 225 226 216 219 221 221 220 217 216 214 218 223 224 225 225 222 223 225 226 226 228 229 227 219 210 203 202 208 212 212 212 213 212 211 211 210
103 113 106 105 109 92 125 120 113 135 119 211 196 143 88 110 243 246 189 78 44 197 184 177 190 195 196 190 191 193 199 204 201 200 202 205 210 212 214 213 214 213 210 209 211 211 212 213 213 209 208 211 215 218 220 219 220 222 224 227 226 227 224 221 228 228 224 224 221 220 217 218 224 228 231 232 230 230 230 229 231 232 232 230 222 216 211 209 213 217 217 216 216 215 216 215 211
119 127 103 81 100 99 60 115 116 166 125 307 219 142 108 127 222 232 104 58 215 199 188 184 209 212 204 198 195 198 208 209 201 199 201 203 207 208 210 210 211 210 209 209 208 209 210 212 213 212 211 210 214 220 224 223 222 225 225 226 231 233 229 226 231 231 227 228 226 225 224 220 223 229 234 235 235 236 235 234 236 235 234 232 226 222 218 216 219 221 223 223 221 221 220 219 215
132 146 116 105 135 111 44 80 83 297 126 23 242 190 210 194 218 195 103 52 135 188 197 188 211 220 217 212 207 210 212 205 200 207 209 208 208 207 210 209 206 205 208 208 206 208 210 211 213 213 214 214 217 220 223 226 226 227 225 225 228 232 235 233 232 232 232 233 232 231 228 223 224 230 234 235 237 238 239 239 240 238 237 235 230 226 222 220 223 225 227 227 226 226 224 223 219
151 180 122 135 176 153 30 2 304 253 106 329 252 236 232 205 219 157 106 343 132 193 200 194 210 216 223 222 225 224 215 208 209 216 216 215 214 213 214 210 206 205 205 204 205 208 208 210 213 214 215 216 219 220 220 223 227 228 228 227 227 229 233 234 233 232 234 235 236 234 230 228 228 231 235 237 237 238 241 243 243 242 240 238 233 228 224 222 225 226 227 226 227 226 224 225 221
140 146 169 154 197 166 69 13 271 183 127 323 234 241 256 197 188 114 87 275 231 231 208 197 206 210 225 224 232 236 224 219 221 224 222 222 222 221 220 215 211 210 208 208 209 208 206 208 211 214 216 216 219 220 220 221 224 228 229 230 229 228 229 230 233 234 236 239 238 237 234 233 234 234 236 238 238 238 241 245 246 246 244 241 236 231 226 224 226 227 227 225 226 225 223 226 221
109 165 170 164 227 164 87 45 319 217 128 251 222 237 258 248 120 93 48 240 214 242 233 214 214 215 224 223 232 239 236 231 231 233 230 228 228 229 228 223 219 218 219 219 214 208 207 209 211 215 216 215 217 221 222 222 225 227 228 231 230 229 229 229 233 236 237 238 239 241 241 242 242 237 236 238 239 238 240 242 244 247 247 241 238 236 231 229 229 229 229 226 226 226 226 227 224
176 246 165 158 215 180 129 109 3 338 126 199 235 260 265 284 46 95 49 43 183 245 249 236 228 227 225 225 230 234 241 237 234 237 234 232 231 233 233 229 228 227 227 224 219 214 212 211 212 215 217 216 217 220 221 222 224 227 229 232 233 233 234 232 232 234 237 240 241 242 245 249 250 245 241 240 240 240 240 242 244 246 244 240 239 239 235 233 234 233 232 231 227 228 230 229 228
174 252 131 141 216 189 188 145 65 330 215 207 215 246 250 246 252 179 169 206 282 271 259 250 236 233 228 222 227 232 238 237 234 235 234 233 234 235 235 234 233 231 231 229 225 223 218 213 212 214 217 219 220 220 222 224 224 225 227 231 234 236 238 237 235 234 236 239 240 241 242 247 249 247 247 245 242 242 242 244 246 246 241 237 238 239 238 237 238 236 235 235 231 228 230 231 232
176 184 171 157 210 226 235 158 104 266 224 215 199 230 249 251 259 250 192 180 258 272 268 273 258 248 242 229 232 232 233 239 237 234 235 236 238 239 239 238 237 235 234 232 229 227 223 217 214 216 217 216 220 221 225 228 228 227 227 228 232 235 236 234 231 233 235 235 236 239 239 241 243 242 244 248 245 242 241 241 243 244 240 237 236 236 237 235 236 235 233 235 233 229 229 230 233
174 175 178 164 175 213 224 98 28 274 213 221 219 232 250 253 258 263 233 173 235 266 268 271 260 251 244 234 234 231 234 241 237 236 239 240 241 242 241 241 240 238 237 234 230 227 225 220 216 218 217 213 214 217 220 224 225 227 228 230 233 233 231 228 228 233 236 236 236 238 238 238 239 236 238 245 245 241 240 240 242 243 241 238 238 237 237 236 236 235 232 233 233 231 231 232 233
147 145 155 171 182 180 136 101 47 315 228 223 231 249 261 260 257 262 260 223 238 255 256 256 252 248 239 231 231 227 233 239 230 239 245 243 243 243 242 241 239 238 236 234 231 229 228 225 219 218 216 210 210 212 214 215 215 219 223 228 232 231 229 229 228 229 230 231 232 234 235 236 235 233 236 241 243 243 242 242 242 243 242 240 240 240 238 237 237 236 233 233 233 232 233 234 233
127 161 172 189 221 179 94 105 90 41 244 212 181 263 263 257 254 257 255 248 246 243 241 245 244 242 237 231 234 233 237 241 222 233 240 239 241 241 240 239 236 234 234 232 231 231 229 226 222 220 216 210 210 211 212 214 215 215 217 222 225 227 227 225 225 227 227 229 231 232 234 235 233 234 240 242 242 245 245 242 242 243 243 240 239 239 237 236 237 236 233 232 233 231 231 234 231
125 154 177 189 205 167 127 128 104 60 253 222 64 282 270 258 253 249 241 241 243 235 238 247 246 242 237 229 234 238 245 251 238 231 230 230 237 239 236 236 234 233 232 232 231 230 227 224 222 221 219 215 212 211 211 214 216 215 217 219 218 221 224 222 223 228 230 231 235 235 234 235 234 237 244 242 240 248 250 245 243 244 244 242 240 240 237 236 236 236 234 231 229 227 228 233 232
130 137 167 176 141 201 212 149 120 50 329 314 317 288 280 266 250 241 234 240 257 257 254 257 253 247 245 242 253 252 248 256 254 241 232 225 229 233 233 234 234 232 229 229 228 225 223 223 224 222 221 220 216 214 213 213 215 216 218 222 223 225 227 227 230 233 232 231 236 239 237 236 238 243 247 241 238 247 251 247 245 245 246 246 243 241 239 238 237 235 233 230 228 225 225 231 234
196 192 170 136 164 200 350 94 123 138 150 324 305 280 274 259 241 240 223 233 267 264 261 257 246 241 246 256 261 253 246 255 262 258 248 233 230 230 234 236 235 232 229 228 227 224 222 224 225 223 222 222 220 218 216 212 213 215 217 220 224 227 228 229 229 232 233 234 238 241 240 238 240 244 244 240 239 246 248 248 249 248 248 248 245 242 241 240 238 236 234 232 230 230 229 231 233
190 229 200 160 173 157 98 110 149 215 201 61 335 269 258 146 238 243 197 321 262 227 242 257 244 222 226 240 246 239 239 248 255 262 263 252 244 237 238 240 238 235 233 231 228 226 224 224 224 222 221 222 221 219 216 211 210 213 213 214 216 219 221 220 221 227 230 231 234 238 239 239 240 241 240 239 240 244 245 246 250 250 247 247 245 243 241 239 237 237 236 234 234 236 233 230 232
181 226 178 136 143 134 131 153 177 250 242 52 343 263 268 309 267 249 21 309 279 248 242 254 248 222 222 236 245 237 240 247 248 257 260 255 249 242 240 240 240 239 237 235 232 229 227 225 224 222 221 221 221 219 214 207 208 211 211 213 214 215 218 219 221 227 229 228 229 231 231 232 235 240 242 243 243 244 242 243 249 249 245 247 248 246 244 242 242 241 240 238 238 239 234 229 234
170 226 140 130 134 138 145 154 181 313 351 227 217 298 285 283 269 301 1 298 280 269 250 241 219 224 236 242 254 254 254 261 263 261 256 247 242 241 243 243 242 242 240 238 235 231 228 225 224 223 221 221 221 217 209 204 206 209 210 213 215 216 220 223 225 228 229 229 228 225 225 227 235 245 247 245 243 243 244 248 255 253 249 250 250 248 249 248 246 244 242 241 241 240 235 233 236
60 269 131 117 115 118 129 134 127 40 326 239 167 95 268 266 245 134 357 288 269 266 256 247 209 242 259 263 265 269 267 268 268 269 266 253 236 235 246 250 247 241 237 236 234 230 227 224 223 222 220 220 220 213 204 204 206 206 208 211 215 218 221 224 226 228 229 231 232 231 234 240 244 249 247 244 245 249 255 258 258 254 251 250 248 248 251 250 246 243 242 243 242 240 239 237 237
146 164 112 89 84 78 84 100 111 103 269 245 143 86 263 266 245 183 118 264 254 258 259 280 313 281 270 276 279 289 291 281 269 268 270 264 246 238 247 253 248 235 226 224 223 221 221 219 218 218 217 217 215 209 202 204 204 204 205 208 212 216 219 223 226 229 231 233 236 236 238 242 243 245 246 247 250 254 256 255 252 249 248 247 247 250 251 246 242 241 242 245 244 242 241 239 237
145 158 111 91 76 57 72 53 70 198 250 250 58 12 284 274 256 202 199 236 248 258 268 318 309 301 279 259 279 311 318 311 300 294 283 266 239 224 233 239 228 212 205 202 200 203 207 209 211 211 213 213 210 204 201 201 202 203 206 208 210 213 216 221 224 228 230 231 234 235 237 240 241 243 247 247 248 248 248 249 251 252 251 250 251 252 250 245 243 244 246 248 248 246 245 243 241
152 166 131 112 83 79 118 72 112 225 235 86 41 348 266 246 244 208 273 288 261 240 236 298 333 344 315 276 290 312 315 312 308 319 332 88 119 128 151 161 169 174 176 181 185 189 193 198 201 202 205 206 204 202 202 200 200 202 207 208 210 213 215 220 224 226 230 232 234 237 238 240 242 244 245 244 244 246 246 249 252 254 254 255 256 256 253 252 251 251 251 250 249 248 247 244 242
224 164 154 148 135 156 192 185 193 233 242 67 28 334 246 247 257 274 276 270 245 222 235 265 296 311 302 308 322 314 313 314 310 323 355 60 95 111 128 133 147 158 164 173 178 180 186 190 193 196 200 201 201 204 204 201 201 204 205 207 210 214 216 221 226 228 231 234 237 239 239 240 242 243 243 245 249 252 253 253 253 254 254 256 257 258 257 255 253 251 250 248 247 246 245 244 243
193 166 165 168 150 165 200 185 229 261 287 57 7 330 255 263 265 255 259 269 292 210 240 255 272 283 291 308 311 304 305 308 304 308 2 62 81 103 123 133 149 160 165 172 175 177 181 183 187 194 198 199 200 203 203 202 206 208 209 210 212 215 218 221 226 229 232 235 238 240 239 241 242 243 247 250 253 255 254 254 256 256 256 256 257 257 257 257 255 252 249 249 249 248 247 246 245
192 168 146 181 171 188 202 182 218 233 94 83 148 203 235 253 16 241 254 284 317 265 256 272 271 269 280 293 289 287 296 306 305 287 78 88 75 94 130 153 160 165 167 172 175 176 177 177 183 190 194 196 198 201 203 205 209 212 215 218 218 220 223 225 229 232 234 235 238 242 243 244 247 249 252 255 256 255 253 252 254 255 255 257 257 257 257 258 257 256 254 253 251 250 249 248 247
195 7 88 213 196 135 123 64 73 82 50 164 181 241 248 260 304 280 255 279 279 249 238 258 262 264 269 277 278 277 286 299 325 309 62 68 50 70 148 167 168 172 170 171 174 174 175 177 181 186 191 193 195 198 202 205 210 213 216 220 221 224 226 227 230 234 238 240 241 246 249 250 252 256 258 259 259 259 258 256 256 255 255 256 258 258 258 258 257 257 256 255 253 251 248 247 247
149 165 183 204 39 100 115 106 59 35 269 214 166 252 269 288 285 279 278 283 268 232 221 239 246 277 266 257 269 276 283 321 342 330 4 29 26 27 173 175 178 178 174 172 173 173 175 178 180 184 189 191 193 196 200 203 208 212 216 219 222 226 229 234 239 244 247 249 251 253 255 257 259 263 266 267 267 266 265 263 260 258 256 255 255 256 257 258 258 256 255 256 255 252 250 249 248
143 177 171 145 66 73 127 183 94 133 251 242 171 247 272 273 263 312 9 280 265 246 279 255 217 169 248 247 262 270 281 38 331 317 312 310 291 269 225 188 184 178 173 172 171 172 175 177 180 183 186 189 191 195 199 203 209 213 218 221 224 229 234 240 244 247 249 252 256 258 259 263 267 271 274 276 276 273 270 267 264 260 257 255 254 253 254 256 256 257 257 256 256 254 252 253 252
11 179 146 132 194 194 173 186 173 198 236 256 224 253 266 227 225 284 269 238 241 7 345 251 164 147 235 252 268 276 345 66 0 5 357 269 235 238 222 197 186 178 173 173 173 173 174 175 178 181 183 185 188 192 195 199 205 210 214 217 221 227 232 238 242 245 247 250 256 261 264 271 277 279 282 284 284 279 275 270 266 263 260 257 256 255 254 255 254 257 258 257 255 254 253 253 254
39 126 135 341 280 204 175 158 174 215 221 248 252 257 242 216 206 236 239 221 152 325 335 77 143 201 267 273 284 297 349 49 6 0 346 305 247 220 209 195 187 183 180 177 176 174 172 173 175 176 178 179 181 185 187 192 200 205 209 212 215 221 226 232 237 242 247 253 260 267 273 278 281 281 282 284 283 281 277 273 267 264 261 257 257 256 256 256 256 257 258 257 256 255 254 255 256
152 164 166 172 108 35 227 154 78 234 208 216 250 256 245 214 184 215 237 259 52 338 328 63 75 298 275 274 279 293 319 12 359 343 328 311 307 212 194 191 187 186 184 178 175 174 173 175 174 173 176 177 179 182 183 191 202 206 208 212 215 219 224 230 237 245 254 262 269 273 276 278 278 278 280 280 281 281 278 274 269 265 262 260 259 258 257 257 257 258 258 257 256 255 255 255 256
170 184 179 175 154 136 183 197 153 1 231 198 235 265 260 155 173 212 234 284 48 64 258 236 285 289 281 277 269 281 299 331 339 333 331 324 336 24 156 184 185 183 181 176 174 174 175 175 175 175 177 179 180 183 189 198 209 213 215 218 221 225 231 238 246 253 261 266 271 274 274 275 276 278 279 278 279 280 278 275 271 267 265 263 262 261 259 257 257 258 259 258 256 255 255 255 255